Location: ČR
(50.0000°N, 15.0000°E)
Time: 06:56:23
(UTC+02:00)

A-11 Canister half - Pass Details

Date: 24 March 2026
Orbit: 1514 x 1685 km, 47.2° (Epoch: 18 April)

Event Time Altitude Azimuth Distance (km) Brightness Sun altitude
Rises 12:32:55 0° 239° (WSW) 4,787 12.0 41.2°
Reaches altitude 10° 12:36:00 10° 236° (SW) 3,826 11.7 41.1°
Maximum altitude 12:45:37 63° 158° (SSE) 1,808 10.7 40.8°
Drops below altitude 10° 12:55:32 10° 81° (E) 3,942 11.0 40.4°
Sets 12:58:45 0° 79° (ENE) 4,939 11.4 40.3°
